This is the latest recevied weather packets stored in our database for station/object KC3BHK-2. If no packets are shown the sender has not sent any weather packets the latest 10 day(s).
| Time | Temp. | Humidity | Pressure | Rain* | Wind** | Luminosity | Snow |
|---|---|---|---|---|---|---|---|
| 1777394507 | 11.11° C | - | - | 0 mm | 1.79 m/s, 100° | - | - |
| 1777394203 | 11.67° C | - | - | 0 mm | 2.24 m/s, 124° | - | - |
| 1777393895 | 11.11° C | - | - | 0 mm | 2.68 m/s, 142° | - | - |
| 1777393590 | 12.22° C | - | - | 0 mm | 2.24 m/s, 121° | - | - |
| 1777393285 | 11.67° C | - | - | 0 mm | 2.24 m/s, 134° | - | - |
| 1777392980 | 11.11° C | - | - | 0 mm | 0.45 m/s, 152° | - | - |
| 1777392675 | 12.22° C | - | - | 0 mm | 0.89 m/s, 141° | - | - |
| 1777392371 | 12.22° C | - | - | 0 mm | 2.68 m/s, 105° | - | - |
| 1777392063 | 11.67° C | - | - | 0 mm | 0.89 m/s, 97° | - | - |
| 1777391758 | 11.67° C | - | - | 0 mm | 1.79 m/s, 142° | - | - |
| 1777391453 | 11.67° C | - | - | 0 mm | 1.79 m/s, 121° | - | - |
| 1777391148 | 10.56° C | - | - | 0 mm | 0.89 m/s, 66° | - | - |
| 1777390843 | 10° C | - | - | 0 mm | 0.89 m/s, 111° | - | - |
| 1777390538 | 11.11° C | - | - | 0 mm | 1.79 m/s, 141° | - | - |
| 1777390230 | 11.11° C | - | - | 0 mm | 1.79 m/s, 155° | - | - |
| 1777389925 | 10.56° C | - | - | 0 mm | 0.89 m/s, 180° | - | - |
| 1777389620 | 10.56° C | - | - | 0 mm | 1.79 m/s, 129° | - | - |
| 1777389315 | 9.44° C | - | - | 0 mm | 2.24 m/s, 136° | - | - |
| 1777389010 | 10° C | - | - | 0 mm | 2.24 m/s, 166° | - | - |
| 1777388706 | 10° C | - | - | 0 mm | 1.34 m/s, 125° | - | - |
| 1777388398 | 10° C | - | - | 0 mm | 1.79 m/s, 122° | - | - |
| 1777388093 | 10° C | - | - | 0 mm | 2.68 m/s, 110° | - | - |
| 1777387788 | 11.11° C | - | - | 0 mm | 2.24 m/s, 120° | - | - |
| 1777387483 | 10° C | - | - | 0 mm | 3.58 m/s, 160° | - | - |
| 1777387178 | 10° C | - | - | 0 mm | 2.68 m/s, 165° | - | - |
* Rain latest hour (hover to see other rain measurements)
** Current wind speed in m/s (hover to see current wind gust speed)